• In Uzbekistan
  • List of Countries
  • For 7 days
  • Water Temperature
  • Satellite Maps
  • Weather Map
  • Weather Widgets
  • user-avatar
    Login

    Hourly Weather Tagtabazar

    Today, 14 December, Friday

    Time Temperature Precipitation Wind Pressure Humidity
    00:00 +12°C° 0 mm 4 mps 719 mmHg 29%
    01:00 +12°C° 0 mm 4 mps 719 mmHg 28%
    02:00 +12°C° 0 mm 4 mps 719 mmHg 28%
    03:00 +11°C° 0 mm 4 mps 719 mmHg 28%
    04:00 +11°C° 0 mm 4 mps 719 mmHg 28%
    05:00 +11°C° 0 mm 3 mps 720 mmHg 28%
    06:00 +11°C° 0 mm 3 mps 720 mmHg 28%
    07:00 +10°C° 0 mm 3 mps 720 mmHg 28%
    08:00 +12°C° 0 mm 3 mps 721 mmHg 26%
    09:00 +15°C° 0 mm 4 mps 721 mmHg 23%
    10:00 +18°C° 0 mm 4 mps 722 mmHg 20%
    11:00 +19°C° 0 mm 4 mps 722 mmHg 19%
    12:00 +20°C° 0 mm 5 mps 722 mmHg 19%
    13:00 +21°C° 0 mm 5 mps 722 mmHg 18%
    14:00 +19°C° 0 mm 5 mps 723 mmHg 21%
    15:00 +17°C° 0 mm 5 mps 723 mmHg 24%
    16:00 +16°C° 0 mm 5 mps 723 mmHg 27%
    17:00 +15°C° 0 mm 4 mps 723 mmHg 32%
    18:00 +13°C° 0 mm 3 mps 724 mmHg 38%
    19:00 +13°C° 0 mm 2 mps 724 mmHg 43%
    20:00 +12°C° 0 mm 2 mps 724 mmHg 47%
    21:00 +10°C° 0 mm 2 mps 724 mmHg 50%
    22:00 +11°C° 0 mm 1 mps 724 mmHg 54%
    23:00 +10°C° 0 mm 1 mps 724 mmHg 58%

    Tomorrow, 15 December, Saturday

    Time Temperature Precipitation Wind Pressure Humidity
    00:00 +9°C° 0 mm 1 mps 723 mmHg 63%
    01:00 +9°C° 0 mm 1 mps 723 mmHg 67%
    02:00 +7°C° 0 mm 0 mps 723 mmHg 70%
    03:00 +7°C° 0 mm 0 mps 722 mmHg 72%
    04:00 +6°C° 0 mm 0 mps 722 mmHg 75%
    05:00 +6°C° 0 mm 0 mps 722 mmHg 75%
    06:00 +6°C° 0 mm 0 mps 722 mmHg 75%
    07:00 +6°C° 0 mm 0 mps 722 mmHg 75%
    08:00 +9°C° 0 mm 1 mps 722 mmHg 65%
    09:00 +11°C° 0 mm 1 mps 722 mmHg 54%
    10:00 +13°C° 0 mm 1 mps 723 mmHg 44%
    11:00 +14°C° 0 mm 1 mps 722 mmHg 38%
    12:00 +16°C° 0 mm 1 mps 722 mmHg 33%
    13:00 +17°C° 0 mm 2 mps 722 mmHg 27%
    14:00 +17°C° 0 mm 2 mps 722 mmHg 29%
    15:00 +17°C° 0 mm 2 mps 722 mmHg 30%
    16:00 +16°C° 0 mm 1 mps 723 mmHg 32%
    17:00 +15°C° 0 mm 2 mps 723 mmHg 37%
    18:00 +14°C° 0 mm 2 mps 724 mmHg 41%
    19:00 +11°C° 0 mm 3 mps 724 mmHg 46%
    20:00 +11°C° 0 mm 3 mps 724 mmHg 52%
    21:00 +10°C° 0 mm 2 mps 725 mmHg 58%
    22:00 +9°C° 0 mm 2 mps 725 mmHg 64%
    23:00 +8°C° 0 mm 2 mps 725 mmHg 68%

    Day after tomorrow, 16 December, Sunday

    Time Temperature Precipitation Wind Pressure Humidity
    00:00 +9°C° 0 mm 1 mps 725 mmHg 72%
    01:00 +8°C° 0 mm 1 mps 725 mmHg 76%
    02:00 +8°C° 0 mm 1 mps 725 mmHg 78%
    03:00 +7°C° 0 mm 1 mps 725 mmHg 80%
    04:00 +6°C° 0 mm 0 mps 725 mmHg 81%
    05:00 +6°C° 0 mm 0 mps 725 mmHg 82%
    06:00 +6°C° 0 mm 0 mps 725 mmHg 83%
    07:00 +5°C° 0 mm 0 mps 725 mmHg 84%
    08:00 +7°C° 0 mm 0 mps 725 mmHg 75%
    09:00 +8°C° 0 mm 0 mps 725 mmHg 67%
    10:00 +10°C° 0 mm 0 mps 725 mmHg 58%
    11:00 +12°C° 0 mm 1 mps 725 mmHg 53%
    12:00 +13°C° 0 mm 1 mps 724 mmHg 48%
    13:00 +14°C° 0 mm 1 mps 723 mmHg 42%
    14:00 +14°C° 0 mm 1 mps 723 mmHg 43%
    15:00 +14°C° 0 mm 1 mps 723 mmHg 43%
    16:00 +14°C° 0 mm 1 mps 723 mmHg 43%
    17:00 +13°C° 0 mm 1 mps 723 mmHg 46%
    18:00 +12°C° 0 mm 1 mps 723 mmHg 49%
    19:00 +11°C° 0 mm 1 mps 722 mmHg 51%
    20:00 +11°C° 0 mm 1 mps 722 mmHg 50%
    21:00 +11°C° 0 mm 1 mps 722 mmHg 49%
    22:00 +11°C° 0 mm 1 mps 722 mmHg 48%
    23:00 +10°C° 0 mm 2 mps 722 mmHg 46%

    17 December, Monday

    Time Temperature Precipitation Wind Pressure Humidity
    00:00 +10°C° 0 mm 2 mps 722 mmHg 43%
    01:00 +10°C° 0 mm 2 mps 722 mmHg 41%
    02:00 +9°C° 0 mm 2 mps 722 mmHg 39%
    03:00 +9°C° 0 mm 2 mps 722 mmHg 37%
    04:00 +9°C° 0 mm 2 mps 722 mmHg 36%
    05:00 +9°C° 0 mm 2 mps 722 mmHg 35%
    06:00 +9°C° 0 mm 2 mps 722 mmHg 35%
    07:00 +9°C° 0 mm 1 mps 722 mmHg 35%
    08:00 +12°C° 0 mm 1 mps 723 mmHg 31%
    09:00 +14°C° 0 mm 1 mps 723 mmHg 27%
    10:00 +16°C° 0 mm 1 mps 724 mmHg 23%
    11:00 +18°C° 0 mm 1 mps 723 mmHg 22%
    12:00 +18°C° 0 mm 2 mps 723 mmHg 22%
    13:00 +18°C° 0 mm 2 mps 722 mmHg 21%
    14:00 +18°C° 0 mm 2 mps 722 mmHg 24%
    15:00 +17°C° 0 mm 2 mps 722 mmHg 26%
    16:00 +16°C° 0 mm 2 mps 722 mmHg 29%
    17:00 +15°C° 0 mm 2 mps 722 mmHg 32%
    18:00 +14°C° 0 mm 2 mps 722 mmHg 35%
    19:00 +13°C° 0 mm 1 mps 722 mmHg 39%
    20:00 +12°C° 0 mm 1 mps 722 mmHg 40%
    21:00 +11°C° 0 mm 1 mps 722 mmHg 42%
    22:00 +10°C° 0 mm 0 mps 722 mmHg 44%
    23:00 +9°C° 0 mm 0 mps 721 mmHg 44%

    18 December, Tuesday

    Time Temperature Precipitation Wind Pressure Humidity
    00:00 +9°C° 0 mm 0 mps 721 mmHg 45%
    01:00 +8°C° 0 mm 0 mps 721 mmHg 45%
    02:00 +8°C° 0 mm 0 mps 721 mmHg 45%
    03:00 +8°C° 0 mm 0 mps 720 mmHg 44%
    04:00 +8°C° 0 mm 0 mps 720 mmHg 44%
    05:00 +9°C° 0 mm 1 mps 720 mmHg 43%
    06:00 +9°C° 0 mm 1 mps 720 mmHg 42%
    07:00 +9°C° 0 mm 1 mps 720 mmHg 41%
    08:00 +11°C° 0 mm 1 mps 720 mmHg 35%
    09:00 +13°C° 0 mm 1 mps 720 mmHg 29%
    10:00 +16°C° 0 mm 1 mps 720 mmHg 23%
    11:00 +18°C° 0 mm 1 mps 719 mmHg 20%
    12:00 +19°C° 0 mm 1 mps 719 mmHg 18%
    13:00 +20°C° 0 mm 1 mps 718 mmHg 16%
    14:00 +20°C° 0 mm 1 mps 717 mmHg 18%
    15:00 +19°C° 0 mm 1 mps 717 mmHg 20%
    16:00 +17°C° 0 mm 2 mps 716 mmHg 22%
    17:00 +16°C° 0 mm 1 mps 717 mmHg 24%
    18:00 +15°C° 0 mm 1 mps 717 mmHg 25%
    19:00 +13°C° 0 mm 1 mps 717 mmHg 26%
    20:00 +13°C° 0 mm 1 mps 716 mmHg 26%
    21:00 +13°C° 0 mm 1 mps 716 mmHg 26%
    22:00 +12°C° 0 mm 1 mps 716 mmHg 25%
    23:00 +13°C° 0 mm 1 mps 716 mmHg 26%

    19 December, Wednesday

    Time Temperature Precipitation Wind Pressure Humidity
    00:00 +13°C° 0 mm 1 mps 716 mmHg 26%
    01:00 +13°C° 0 mm 1 mps 716 mmHg 27%
    02:00 +13°C° 0 mm 1 mps 716 mmHg 29%
    03:00 +12°C° 0 mm 1 mps 716 mmHg 32%
    04:00 +12°C° 0 mm 1 mps 717 mmHg 34%
    05:00 +10°C° 0.1 mm 2 mps 717 mmHg 38%
    06:00 +10°C° 0.1 mm 2 mps 718 mmHg 42%
    07:00 +9°C° 0.1 mm 3 mps 719 mmHg 46%
    08:00 +8°C° 0 mm 4 mps 719 mmHg 51%
    09:00 +8°C° 0 mm 5 mps 720 mmHg 55%
    10:00 +7°C° 0 mm 5 mps 721 mmHg 59%
    11:00 +8°C° 0 mm 5 mps 721 mmHg 56%
    12:00 +9°C° 0 mm 5 mps 721 mmHg 54%
    13:00 +10°C° 0 mm 5 mps 721 mmHg 52%
    14:00 +11°C° 0 mm 4 mps 722 mmHg 54%
    15:00 +10°C° 0 mm 4 mps 722 mmHg 56%
    16:00 +10°C° 0 mm 4 mps 723 mmHg 57%
    17:00 +10°C° 0 mm 3 mps 723 mmHg 61%
    18:00 +9°C° 0 mm 2 mps 724 mmHg 64%
    19:00 +8°C° 0 mm 2 mps 725 mmHg 67%
    20:00 +9°C° 0 mm 1 mps 725 mmHg 69%
    21:00 +9°C° 0 mm 1 mps 725 mmHg 71%
    22:00 +8°C° 0 mm 1 mps 726 mmHg 73%
    23:00 +8°C° 0 mm 1 mps 726 mmHg 74%
    Show more